DELTA 1 DEB, 42636

Orbit data source: Space-Track

DELTA 1 DEB, 42636 is space debris in LEO originally from a launch on Thu, 12 Jun 1975 UTC launched from the Air Force Western Test Range (AFWTR). Debris objects in space refer to the collection of defunct objects orbiting the Earth. Examples of debris include non-operational satellites, rocket bodies, and fragments generated from explosions, collisions, or faulty payload assembly.

Loading next visibility...
DELTA 1 DEB details
Identifier
42636, 1975-052LV
Orbit
LEO
Last TLE update14 hours ago
Origin
Flag of USGSFC (US)
ManufacturerUnknown
MissionSpacecraft
Bus & MotorUnknown
MassUnknown
Launch date (UTC)
1975-06-12 (49 years ago)
Launch vehicleUnknown
Launch site
Air Force Western Test Range (AFWTR)
Object type
Payload
Rocket body
Debris
Shape & HBRUnknown
Radar Cross SectionSmall (<0.1 m²)

Expand to show TLE details & history

TLE from 14 hours ago
0 DELTA 1 DEB
1 42636U 75052LV  24338.84190185  .00000557  00000-0  13792-2 0  9997
2 42636  99.7167 196.6579 0131399  50.2623 321.7067 13.21867084531925
Epoch: 2024-12-03T20:12Z
Definitive object data (Epoch: 2024-12-03T20:12:20.319Z)
Latitude10.81691°
Longitude178.56238°
Altitude1,102.167 km
Speed7.339 km/s
True Right ascension12h 59m 10s
True Declination10° 45' 24"
Sunlit
Object was in daylight at TLE epoch
Visualization TLE readout
Latitude-73.65438°
Longitude-143.51218°
Altitude1,261.365 km
Speed7.197 km/s
Apparent Right ascension18h 52m 50s
Apparent Declination-62° 16' 53"
Sunlit
Object is in daylight
Visualization observer readout
Local Sidereal Time08:12:13
Azimuth158.37° S
Elevation-64.634°
Doppler factor1
Orbital elements
Apogee altitude1,274.183 km
Perigee altitude1,075.689 km
Semi-major axis7,553.073 km
Eccentricity0.0131399
Inclination99.7167°
RAAN196.6579°
Arg. of periapsis50.2623°
True anomaly320.76149°
Mean anomaly321.7067°
Eccentric anomaly321.23532°
Mean motion3.30642 °/min
BSTAR0.0013792
Orbital period108.88 mins
Loading maneuver chart data...
Loading historical data...
Loading historical data...
Loading historical data...
Loading historical data...
Loading historical data...
Loading historical data...
Loading historical data...

DELTA 1 DEB Visibility forecast

Observer location: undefined°, undefined

Span
Click to sort rows by Start time (UTC) header in descending order
Start Az.
Max El. time (UTC)
Max El. Az.
Max El.
End time (UTC)
End Az.
4 mins2024-12-04 12:42:48.382Z73.449° E2024-12-04 12:44:48.382Z54.599° ENE12.666°2024-12-04 12:46:48.382Z35.633° NE
11 mins2024-12-04 14:25:48.382Z155.995° SSE2024-12-04 14:30:48.382Z103.973° ESE43.964°2024-12-04 14:36:48.382Z349.003° N
6 mins2024-12-04 16:16:48.382Z245.29° WSW2024-12-04 16:18:48.382Z265.502° W15.464°2024-12-04 16:22:48.382Z304.347° NW
4 mins2024-12-05 01:53:48.382Z76.311° E2024-12-05 01:54:48.382Z85.353° E13.127°2024-12-05 01:57:48.382Z111.723° ESE
12 mins2024-12-05 03:37:48.382Z16.382° NNE2024-12-05 03:43:48.382Z170.232° S44.523°2024-12-05 03:49:48.382Z194.433° SSW
7 mins2024-12-05 05:26:48.382Z332.905° NNW2024-12-05 05:29:48.382Z303.493° NW17.468°2024-12-05 05:33:48.382Z266.523° W
|